Location: Harbor View
(36.2448°N, 86.5797°W)
Time: 09:26:27
(UTC+00:00)

COSMO-SKYMED 1 - Pass Details

Date: 29 October 2020
Orbit: 621 x 623 km, 97.9° (Epoch: 04 December)

Event Time Altitude Azimuth Distance (km) Brightness Sun altitude
Rises 23:32:44 0° 16° (NNE) 2,908 5.7 -8.7°
Reaches altitude 10° 23:34:58 10° 21° (NNE) 1,997 4.9 -9.1°
Maximum altitude 23:39:15 57° 100° (E) 731 2.6 -10.0°
Drops below altitude 10° 23:43:30 10° 180° (S) 1,982 5.3 -10.8°
Sets 23:45:42 0° 184° (S) 2,883 6.2 -11.3°
